• în Republica Moldova
  • Lista ţărilor
  • Pe 7 zile
  • Temperatura apei
  • Hartă satelitară
  • Meteo pe hartă
  • Widget-uri
  • user-avatar
    Intrare

    Meteo pe oră la Yulara

    Astăzi, 24 Martie, Vineri

    Timp Temperatura Precipitaţii Vânt Presiune Umiditate
    00:00 +31°C° 0 mm 3 m/s 716 mmHg 22%
    01:00 +30°C° 0 mm 3 m/s 716 mmHg 23%
    02:00 +29°C° 0 mm 3 m/s 716 mmHg 25%
    03:00 +28°C° 0 mm 2 m/s 715 mmHg 26%
    04:00 +28°C° 0 mm 2 m/s 715 mmHg 27%
    05:00 +28°C° 0 mm 3 m/s 716 mmHg 27%
    06:00 +27°C° 0 mm 3 m/s 716 mmHg 28%
    07:00 +29°C° 0 mm 3 m/s 716 mmHg 25%
    08:00 +31°C° 0 mm 3 m/s 716 mmHg 23%
    09:00 +35°C° 0 mm 4 m/s 717 mmHg 19%
    10:00 +36°C° 0 mm 3 m/s 717 mmHg 17%
    11:00 +38°C° 0 mm 3 m/s 716 mmHg 15%
    12:00 +40°C° 0 mm 3 m/s 716 mmHg 13%
    13:00 +40°C° 0 mm 3 m/s 716 mmHg 13%
    14:00 +41°C° 0 mm 2 m/s 715 mmHg 12%
    15:00 +41°C° 0 mm 2 m/s 715 mmHg 12%
    16:00 +40°C° 0 mm 2 m/s 715 mmHg 12%
    17:00 +40°C° 0 mm 2 m/s 715 mmHg 13%
    18:00 +39°C° 0 mm 2 m/s 714 mmHg 14%
    19:00 +37°C° 0 mm 3 m/s 715 mmHg 15%
    20:00 +36°C° 0 mm 3 m/s 715 mmHg 16%
    21:00 +34°C° 0 mm 3 m/s 715 mmHg 17%
    22:00 +34°C° 0 mm 4 m/s 715 mmHg 18%
    23:00 +33°C° 0 mm 4 m/s 715 mmHg 19%

    Mâine, 25 Martie, Sâmbătă

    Timp Temperatura Precipitaţii Vânt Presiune Umiditate
    00:00 +32°C° 0 mm 4 m/s 715 mmHg 21%
    01:00 +30°C° 0 mm 4 m/s 715 mmHg 21%
    02:00 +29°C° 0 mm 4 m/s 714 mmHg 22%
    03:00 +28°C° 0 mm 4 m/s 714 mmHg 23%
    04:00 +28°C° 0 mm 3 m/s 714 mmHg 23%
    05:00 +27°C° 0 mm 3 m/s 714 mmHg 23%
    06:00 +26°C° 0 mm 3 m/s 714 mmHg 24%
    07:00 +28°C° 0 mm 3 m/s 715 mmHg 21%
    08:00 +30°C° 0 mm 3 m/s 715 mmHg 18%
    09:00 +33°C° 0 mm 3 m/s 716 mmHg 15%
    10:00 +35°C° 0 mm 3 m/s 716 mmHg 14%
    11:00 +37°C° 0 mm 4 m/s 715 mmHg 13%
    12:00 +40°C° 0 mm 4 m/s 715 mmHg 12%
    13:00 +41°C° 0 mm 4 m/s 715 mmHg 11%
    14:00 +41°C° 0 mm 4 m/s 714 mmHg 11%
    15:00 +42°C° 0 mm 4 m/s 714 mmHg 11%
    16:00 +41°C° 0 mm 4 m/s 714 mmHg 11%
    17:00 +40°C° 0 mm 4 m/s 714 mmHg 11%
    18:00 +38°C° 0 mm 3 m/s 714 mmHg 11%
    19:00 +36°C° 0 mm 4 m/s 714 mmHg 11%
    20:00 +35°C° 0 mm 4 m/s 714 mmHg 11%
    21:00 +33°C° 0 mm 4 m/s 715 mmHg 11%
    22:00 +32°C° 0 mm 4 m/s 715 mmHg 11%
    23:00 +32°C° 0 mm 4 m/s 715 mmHg 12%

    Poimâine, 26 Martie, Duminică

    Timp Temperatura Precipitaţii Vânt Presiune Umiditate
    00:00 +30°C° 0 mm 4 m/s 715 mmHg 12%
    01:00 +29°C° 0 mm 4 m/s 714 mmHg 13%
    02:00 +29°C° 0 mm 4 m/s 714 mmHg 14%
    03:00 +28°C° 0 mm 4 m/s 714 mmHg 15%
    04:00 +27°C° 0 mm 4 m/s 714 mmHg 16%
    05:00 +27°C° 0 mm 4 m/s 714 mmHg 18%
    06:00 +26°C° 0 mm 3 m/s 714 mmHg 19%
    07:00 +29°C° 0 mm 4 m/s 715 mmHg 17%
    08:00 +32°C° 0 mm 4 m/s 715 mmHg 16%
    09:00 +35°C° 0 mm 4 m/s 716 mmHg 15%
    10:00 +37°C° 0 mm 4 m/s 715 mmHg 13%
    11:00 +40°C° 0 mm 4 m/s 715 mmHg 12%
    12:00 +42°C° 0 mm 4 m/s 715 mmHg 11%
    13:00 +42°C° 0 mm 4 m/s 714 mmHg 11%
    14:00 +43°C° 0 mm 4 m/s 714 mmHg 11%
    15:00 +43°C° 0 mm 4 m/s 713 mmHg 11%
    16:00 +42°C° 0 mm 3 m/s 713 mmHg 12%
    17:00 +40°C° 0 mm 2 m/s 714 mmHg 13%
    18:00 +39°C° 0 mm 2 m/s 714 mmHg 14%
    19:00 +38°C° 0 mm 2 m/s 714 mmHg 15%
    20:00 +37°C° 0 mm 2 m/s 715 mmHg 15%
    21:00 +36°C° 0 mm 2 m/s 715 mmHg 16%
    22:00 +35°C° 0 mm 2 m/s 715 mmHg 17%
    23:00 +35°C° 0 mm 2 m/s 715 mmHg 18%

    27 Martie, Luni

    Timp Temperatura Precipitaţii Vânt Presiune Umiditate
    00:00 +34°C° 0 mm 2 m/s 715 mmHg 19%
    01:00 +34°C° 0 mm 2 m/s 715 mmHg 20%
    02:00 +32°C° 0 mm 2 m/s 715 mmHg 22%
    03:00 +33°C° 0 mm 3 m/s 715 mmHg 23%
    04:00 +32°C° 0 mm 4 m/s 715 mmHg 27%
    05:00 +32°C° 0 mm 6 m/s 715 mmHg 31%
    06:00 +30°C° 0 mm 7 m/s 716 mmHg 35%
    07:00 +32°C° 0 mm 8 m/s 716 mmHg 37%
    08:00 +32°C° 0 mm 9 m/s 717 mmHg 39%
    09:00 +33°C° 0 mm 9 m/s 717 mmHg 41%
    10:00 +34°C° 0 mm 9 m/s 717 mmHg 38%
    11:00 +37°C° 0 mm 9 m/s 717 mmHg 35%
    12:00 +38°C° 0 mm 9 m/s 717 mmHg 31%
    13:00 +39°C° 0 mm 9 m/s 717 mmHg 30%
    14:00 +39°C° 0 mm 9 m/s 716 mmHg 29%
    15:00 +40°C° 0 mm 9 m/s 716 mmHg 27%
    16:00 +38°C° 0 mm 9 m/s 716 mmHg 29%
    17:00 +37°C° 0 mm 9 m/s 716 mmHg 32%
    18:00 +36°C° 0 mm 10 m/s 716 mmHg 34%
    19:00 +34°C° 0,4 mm 9 m/s 717 mmHg 36%
    20:00 +32°C° 0,4 mm 8 m/s 718 mmHg 38%
    21:00 +31°C° 0,4 mm 8 m/s 718 mmHg 41%
    22:00 +29°C° 0,5 mm 7 m/s 718 mmHg 40%
    23:00 +29°C° 0,5 mm 7 m/s 718 mmHg 40%

    28 Martie, Marţi

    Timp Temperatura Precipitaţii Vânt Presiune Umiditate
    00:00 +28°C° 0,5 mm 7 m/s 718 mmHg 39%
    01:00 +28°C° 0,5 mm 6 m/s 718 mmHg 39%
    02:00 +27°C° 0,5 mm 5 m/s 718 mmHg 39%
    03:00 +26°C° 0,5 mm 4 m/s 718 mmHg 40%
    04:00 +26°C° 0,2 mm 4 m/s 718 mmHg 40%
    05:00 +26°C° 0,2 mm 4 m/s 718 mmHg 40%
    06:00 +25°C° 0,2 mm 4 m/s 718 mmHg 40%
    07:00 +26°C° 0 mm 4 m/s 719 mmHg 38%
    08:00 +27°C° 0 mm 5 m/s 719 mmHg 36%
    09:00 +27°C° 0 mm 5 m/s 719 mmHg 34%
    10:00 +29°C° 0 mm 5 m/s 719 mmHg 32%
    11:00 +32°C° 0 mm 6 m/s 718 mmHg 29%
    12:00 +34°C° 0 mm 6 m/s 718 mmHg 27%
    13:00 +35°C° 0 mm 5 m/s 717 mmHg 26%
    14:00 +36°C° 0 mm 5 m/s 716 mmHg 24%
    15:00 +36°C° 0 mm 5 m/s 716 mmHg 23%
    16:00 +36°C° 0 mm 4 m/s 716 mmHg 23%
    17:00 +36°C° 0 mm 4 m/s 716 mmHg 24%
    18:00 +35°C° 0 mm 3 m/s 716 mmHg 24%
    19:00 +34°C° 0 mm 4 m/s 716 mmHg 26%
    20:00 +33°C° 0 mm 4 m/s 717 mmHg 28%
    21:00 +32°C° 0 mm 5 m/s 717 mmHg 29%
    22:00 +30°C° 0 mm 5 m/s 717 mmHg 30%
    23:00 +30°C° 0 mm 5 m/s 717 mmHg 31%

    29 Martie, Miercuri

    Timp Temperatura Precipitaţii Vânt Presiune Umiditate
    00:00 +29°C° 0 mm 5 m/s 717 mmHg 32%
    01:00 +28°C° 0 mm 5 m/s 717 mmHg 32%
    02:00 +28°C° 0 mm 5 m/s 716 mmHg 33%
    03:00 +27°C° 0 mm 4 m/s 716 mmHg 33%
    04:00 +27°C° 0 mm 4 m/s 716 mmHg 34%
    05:00 +26°C° 0 mm 4 m/s 717 mmHg 35%
    06:00 +26°C° 0 mm 3 m/s 717 mmHg 36%
    07:00 +27°C° 0 mm 3 m/s 717 mmHg 33%
    08:00 +28°C° 0 mm 3 m/s 717 mmHg 31%
    09:00 +29°C° 0 mm 3 m/s 718 mmHg 28%
    10:00 +31°C° 0 mm 3 m/s 718 mmHg 27%
    11:00 +33°C° 0 mm 3 m/s 717 mmHg 25%
    12:00 +35°C° 0 mm 2 m/s 717 mmHg 23%
    13:00 +36°C° 0 mm 3 m/s 717 mmHg 22%
    14:00 +37°C° 0 mm 3 m/s 716 mmHg 21%
    15:00 +38°C° 0 mm 3 m/s 716 mmHg 20%
    16:00 +38°C° 0 mm 3 m/s 716 mmHg 21%
    17:00 +37°C° 0 mm 4 m/s 716 mmHg 21%
    18:00 +37°C° 0 mm 4 m/s 717 mmHg 22%
    19:00 +36°C° 0 mm 6 m/s 717 mmHg 23%
    20:00 +35°C° 0 mm 7 m/s 718 mmHg 23%
    21:00 +34°C° 0 mm 9 m/s 719 mmHg 24%
    22:00 +32°C° 0 mm 9 m/s 719 mmHg 23%
    23:00 +31°C° 0 mm 9 m/s 719 mmHg 23%
    Arată mai mult